Starlink 3958

operational
NORAD ID: 52535 Int'l Des: 2022-051 Owner: SPXS Country: US Constellation: starlink
LEOCIRCULAR

About Starlink 3958

Description loading...

Live Position

Loading 3D Globe...

Upcoming Passes

Altitude History

Altitude vs Time

uPlot chart will show altitude changes over time

Two-Line Element Set

1 52535U 22051C 26102.36005002 .00002120 00000-0 15120-3 0 9994
2 52535 53.2181 337.9689 0001267 86.8016 273.3121 15.08844391216520
Epoch: Apr 12, 2026 • Age: 11 hours

Current Status

Altitude 558.9 km
Velocity 7.58 km/s
Sub-Earth Point -52.72°S, 126.25°E
Launch Date May 13, 2022
Age 3.9 years
Type internet

Technical Details

Classification Payload
Mass 297.00 kg
Dry Mass 275.00 kg
Total Mass 297.00 kg
Length 0.20 m
Diameter 2.80 m
Span 9.00 m
Shape Box + pan
Manufacturer SPXS
Bus Type Starlink
Phase Status In Orbit
Owner/State SPXS/US

Large Constellations

Loading constellations...